Date_Time,Julian_Date,Latitude,Longitude,Instrument_Depth,Water_Salinity
(yyyy-mm-dd hh:mn:ss UTC),(JD),(+ deg. North),(+ deg. East),(m),(ppt)
1993-03-22 21:30:00 UTC,2449069.395833,28.5367,-95.3933,0010,30.7400
1993-03-22 22:00:00 UTC,2449069.416667,28.5367,-95.3933,0010,30.6200
1993-03-22 22:30:00 UTC,2449069.437500,28.5367,-95.3933,0010,30.4800
1993-03-22 23:00:00 UTC,2449069.458333,28.5367,-95.3933,0010,30.2100
1993-03-22 23:30:00 UTC,2449069.479167,28.5367,-95.3933,0010,30.0800
1993-03-23 00:00:00 UTC,2449069.500000,28.5367,-95.3933,0010,30.0200
1993-03-23 00:30:00 UTC,2449069.520833,28.5367,-95.3933,0010,29.8100
1993-03-23 01:00:00 UTC,2449069.541667,28.5367,-95.3933,0010,29.6200
1993-03-23 01:30:00 UTC,2449069.562500,28.5367,-95.3933,0010,29.6200
1993-03-23 02:00:00 UTC,2449069.583333,28.5367,-95.3933,0010,29.3600
1993-03-23 02:30:00 UTC,2449069.604167,28.5367,-95.3933,0010,29.3600
1993-03-23 03:00:00 UTC,2449069.625000,28.5367,-95.3933,0010,29.5600
1993-03-23 03:30:00 UTC,2449069.645833,28.5367,-95.3933,0010,29.4900
1993-03-23 04:00:00 UTC,2449069.666667,28.5367,-95.3933,0010,29.4900
1993-03-23 04:30:00 UTC,2449069.687500,28.5367,-95.3933,0010,29.6300
1993-03-23 05:00:00 UTC,2449069.708333,28.5367,-95.3933,0010,29.6300
1993-03-23 05:30:00 UTC,2449069.729167,28.5367,-95.3933,0010,29.7000
1993-03-23 06:00:00 UTC,2449069.750000,28.5367,-95.3933,0010,29.7600
1993-03-23 06:30:00 UTC,2449069.770833,28.5367,-95.3933,0010,29.7500
1993-03-23 07:00:00 UTC,2449069.791667,28.5367,-95.3933,0010,29.8900
1993-03-23 07:30:00 UTC,2449069.812500,28.5367,-95.3933,0010,29.7500
1993-03-23 08:00:00 UTC,2449069.833333,28.5367,-95.3933,0010,29.8900
1993-03-23 08:30:00 UTC,2449069.854167,28.5367,-95.3933,0010,29.8200
1993-03-23 09:00:00 UTC,2449069.875000,28.5367,-95.3933,0010,29.7600
1993-03-23 09:30:00 UTC,2449069.895833,28.5367,-95.3933,0010,29.7500
1993-03-23 10:00:00 UTC,2449069.916667,28.5367,-95.3933,0010,29.9600
1993-03-23 10:30:00 UTC,2449069.937500,28.5367,-95.3933,0010,29.6200
1993-03-23 11:00:00 UTC,2449069.958333,28.5367,-95.3933,0010,29.4100
1993-03-23 11:30:00 UTC,2449069.979167,28.5367,-95.3933,0010,29.4100
1993-03-23 12:00:00 UTC,2449070.000000,28.5367,-95.3933,0010,29.2800
1993-03-23 12:30:00 UTC,2449070.020833,28.5367,-95.3933,0010,29.3500
1993-03-23 13:00:00 UTC,2449070.041667,28.5367,-95.3933,0010,29.1500
1993-03-23 13:30:00 UTC,2449070.062500,28.5367,-95.3933,0010,29.1500
1993-03-23 14:00:00 UTC,2449070.083333,28.5367,-95.3933,0010,29.4200
1993-03-23 14:30:00 UTC,2449070.104167,28.5367,-95.3933,0010,29.2200
1993-03-23 15:00:00 UTC,2449070.125000,28.5367,-95.3933,0010,29.0200
1993-03-23 15:30:00 UTC,2449070.145833,28.5367,-95.3933,0010,29.0900
1993-03-23 16:00:00 UTC,2449070.166667,28.5367,-95.3933,0010,29.2200
1993-03-23 16:30:00 UTC,2449070.187500,28.5367,-95.3933,0010,29.1500
1993-03-23 17:00:00 UTC,2449070.208333,28.5367,-95.3933,0010,29.3600
1993-03-23 17:30:00 UTC,2449070.229167,28.5367,-95.3933,0010,29.5600
1993-03-23 18:00:00 UTC,2449070.250000,28.5367,-95.3933,0010,29.5600
1993-03-23 18:30:00 UTC,2449070.270833,28.5367,-95.3933,0010,29.6900
1993-03-23 19:00:00 UTC,2449070.291667,28.5367,-95.3933,0010,29.5600
1993-03-23 19:30:00 UTC,2449070.312500,28.5367,-95.3933,0010,30.0900
1993-03-23 20:00:00 UTC,2449070.333333,28.5367,-95.3933,0010,30.2300
1993-03-23 20:30:00 UTC,2449070.354167,28.5367,-95.3933,0010,30.2300
1993-03-23 21:00:00 UTC,2449070.375000,28.5367,-95.3933,0010,30.3600
1993-03-23 21:30:00 UTC,2449070.395833,28.5367,-95.3933,0010,30.2300
1993-03-23 22:00:00 UTC,2449070.416667,28.5367,-95.3933,0010,30.2300
1993-03-23 22:30:00 UTC,2449070.437500,28.5367,-95.3933,0010,30.0900
1993-03-23 23:00:00 UTC,2449070.458333,28.5367,-95.3933,0010,29.8200
1993-03-23 23:30:00 UTC,2449070.479167,28.5367,-95.3933,0010,29.5600
1993-03-24 00:00:00 UTC,2449070.500000,28.5367,-95.3933,0010,29.2900
1993-03-24 00:30:00 UTC,2449070.520833,28.5367,-95.3933,0010,29.2200
1993-03-24 01:00:00 UTC,2449070.541667,28.5367,-95.3933,0010,29.4800
1993-03-24 01:30:00 UTC,2449070.562500,28.5367,-95.3933,0010,29.5600
1993-03-24 02:00:00 UTC,2449070.583333,28.5367,-95.3933,0010,29.8200
1993-03-24 02:30:00 UTC,2449070.604167,28.5367,-95.3933,0010,29.4200
1993-03-24 03:00:00 UTC,2449070.625000,28.5367,-95.3933,0010,29.6900
1993-03-24 03:30:00 UTC,2449070.645833,28.5367,-95.3933,0010,29.8200
1993-03-24 04:00:00 UTC,2449070.666667,28.5367,-95.3933,0010,30.0200
1993-03-24 04:30:00 UTC,2449070.687500,28.5367,-95.3933,0010,29.8900
1993-03-24 05:00:00 UTC,2449070.708333,28.5367,-95.3933,0010,30.2800
1993-03-24 05:30:00 UTC,2449070.729167,28.5367,-95.3933,0010,30.1400
1993-03-24 06:00:00 UTC,2449070.750000,28.5367,-95.3933,0010,30.1400
1993-03-24 06:30:00 UTC,2449070.770833,28.5367,-95.3933,0010,29.9500
1993-03-24 07:00:00 UTC,2449070.791667,28.5367,-95.3933,0010,30.0700
1993-03-24 07:30:00 UTC,2449070.812500,28.5367,-95.3933,0010,30.2600
1993-03-24 08:00:00 UTC,2449070.833333,28.5367,-95.3933,0010,30.2600
1993-03-24 08:30:00 UTC,2449070.854167,28.5367,-95.3933,0010,30.4000
1993-03-24 09:00:00 UTC,2449070.875000,28.5367,-95.3933,0010,30.7800
1993-03-24 09:30:00 UTC,2449070.895833,28.5367,-95.3933,0010,30.9100
1993-03-24 10:00:00 UTC,2449070.916667,28.5367,-95.3933,0010,31.1000
1993-03-24 10:30:00 UTC,2449070.937500,28.5367,-95.3933,0010,31.2400
1993-03-24 11:00:00 UTC,2449070.958333,28.5367,-95.3933,0010,31.2400
1993-03-24 11:30:00 UTC,2449070.979167,28.5367,-95.3933,0010,31.3700
1993-03-24 12:00:00 UTC,2449071.000000,28.5367,-95.3933,0010,31.5000
1993-03-24 12:30:00 UTC,2449071.020833,28.5367,-95.3933,0010,31.6400
1993-03-24 13:00:00 UTC,2449071.041667,28.5367,-95.3933,0010,31.6400
1993-03-24 13:30:00 UTC,2449071.062500,28.5367,-95.3933,0010,31.6400
1993-03-24 14:00:00 UTC,2449071.083333,28.5367,-95.3933,0010,31.7700
1993-03-24 14:30:00 UTC,2449071.104167,28.5367,-95.3933,0010,31.7700
1993-03-24 15:00:00 UTC,2449071.125000,28.5367,-95.3933,0010,31.7700
1993-03-24 15:30:00 UTC,2449071.145833,28.5367,-95.3933,0010,31.7700
1993-03-24 16:00:00 UTC,2449071.166667,28.5367,-95.3933,0010,31.9000
1993-03-24 16:30:00 UTC,2449071.187500,28.5367,-95.3933,0010,32.0400
1993-03-24 17:00:00 UTC,2449071.208333,28.5367,-95.3933,0010,32.0400
1993-03-24 17:30:00 UTC,2449071.229167,28.5367,-95.3933,0010,32.0900
1993-03-24 18:00:00 UTC,2449071.250000,28.5367,-95.3933,0010,32.3000
1993-03-24 18:30:00 UTC,2449071.270833,28.5367,-95.3933,0010,32.1700
1993-03-24 19:00:00 UTC,2449071.291667,28.5367,-95.3933,0010,32.1700
1993-03-24 19:30:00 UTC,2449071.312500,28.5367,-95.3933,0010,32.3000
1993-03-24 20:00:00 UTC,2449071.333333,28.5367,-95.3933,0010,32.3800
1993-03-24 20:30:00 UTC,2449071.354167,28.5367,-95.3933,0010,32.3000
1993-03-24 21:00:00 UTC,2449071.375000,28.5367,-95.3933,0010,32.4400
1993-03-24 21:30:00 UTC,2449071.395833,28.5367,-95.3933,0010,32.4400
1993-03-24 22:00:00 UTC,2449071.416667,28.5367,-95.3933,0010,32.3600
1993-03-24 22:30:00 UTC,2449071.437500,28.5367,-95.3933,0010,30.2600
1993-03-24 23:00:00 UTC,2449071.458333,28.5367,-95.3933,0010,30.4000
1993-03-24 23:30:00 UTC,2449071.479167,28.5367,-95.3933,0010,30.2000
1993-03-25 00:00:00 UTC,2449071.500000,28.5367,-95.3933,0010,30.0700
1993-03-25 00:30:00 UTC,2449071.520833,28.5367,-95.3933,0010,30.0700
1993-03-25 01:00:00 UTC,2449071.541667,28.5367,-95.3933,0010,30.0700
1993-03-25 01:30:00 UTC,2449071.562500,28.5367,-95.3933,0010,30.0700
1993-03-25 02:00:00 UTC,2449071.583333,28.5367,-95.3933,0010,30.0700
1993-03-25 02:30:00 UTC,2449071.604167,28.5367,-95.3933,0010,30.1400
1993-03-25 03:00:00 UTC,2449071.625000,28.5367,-95.3933,0010,29.3600
1993-03-25 03:30:00 UTC,2449071.645833,28.5367,-95.3933,0010,29.4900
1993-03-25 04:00:00 UTC,2449071.666667,28.5367,-95.3933,0010,29.3000
1993-03-25 04:30:00 UTC,2449071.687500,28.5367,-95.3933,0010,28.7600
1993-03-25 05:00:00 UTC,2449071.708333,28.5367,-95.3933,0010,28.7600
1993-03-25 05:30:00 UTC,2449071.729167,28.5367,-95.3933,0010,28.5500
1993-03-25 06:00:00 UTC,2449071.750000,28.5367,-95.3933,0010,28.5500
1993-03-25 06:30:00 UTC,2449071.770833,28.5367,-95.3933,0010,28.5500
1993-03-25 07:00:00 UTC,2449071.791667,28.5367,-95.3933,0010,28.6900
1993-03-25 07:30:00 UTC,2449071.812500,28.5367,-95.3933,0010,28.7500
1993-03-25 08:00:00 UTC,2449071.833333,28.5367,-95.3933,0010,28.8200
1993-03-25 08:30:00 UTC,2449071.854167,28.5367,-95.3933,0010,28.8900
1993-03-25 09:00:00 UTC,2449071.875000,28.5367,-95.3933,0010,29.1500
1993-03-25 09:30:00 UTC,2449071.895833,28.5367,-95.3933,0010,30.8500
1993-03-25 10:00:00 UTC,2449071.916667,28.5367,-95.3933,0010,30.8500
1993-03-25 10:30:00 UTC,2449071.937500,28.5367,-95.3933,0010,30.8500
1993-03-25 11:00:00 UTC,2449071.958333,28.5367,-95.3933,0010,30.9100
1993-03-25 11:30:00 UTC,2449071.979167,28.5367,-95.3933,0010,30.9900
1993-03-25 12:00:00 UTC,2449072.000000,28.5367,-95.3933,0010,31.3100
1993-03-25 12:30:00 UTC,2449072.020833,28.5367,-95.3933,0010,31.6400
1993-03-25 13:00:00 UTC,2449072.041667,28.5367,-95.3933,0010,31.4300
1993-03-25 13:30:00 UTC,2449072.062500,28.5367,-95.3933,0010,31.6900
1993-03-25 14:00:00 UTC,2449072.083333,28.5367,-95.3933,0010,31.7500
1993-03-25 14:30:00 UTC,2449072.104167,28.5367,-95.3933,0010,31.5600
1993-03-25 15:00:00 UTC,2449072.125000,28.5367,-95.3933,0010,31.9400
1993-03-25 15:30:00 UTC,2449072.145833,28.5367,-95.3933,0010,31.7500
1993-03-25 16:00:00 UTC,2449072.166667,28.5367,-95.3933,0010,31.8800
1993-03-25 16:30:00 UTC,2449072.187500,28.5367,-95.3933,0010,31.9900
1993-03-25 17:00:00 UTC,2449072.208333,28.5367,-95.3933,0010,32.1800
1993-03-25 17:30:00 UTC,2449072.229167,28.5367,-95.3933,0010,32.1800
1993-03-25 18:00:00 UTC,2449072.250000,28.5367,-95.3933,0010,32.1800
1993-03-25 18:30:00 UTC,2449072.270833,28.5367,-95.3933,0010,32.0500
1993-03-25 19:00:00 UTC,2449072.291667,28.5367,-95.3933,0010,32.0500
1993-03-25 19:30:00 UTC,2449072.312500,28.5367,-95.3933,0010,32.3100
1993-03-25 20:00:00 UTC,2449072.333333,28.5367,-95.3933,0010,32.4500
1993-03-25 20:30:00 UTC,2449072.354167,28.5367,-95.3933,0010,32.3100
1993-03-25 21:00:00 UTC,2449072.375000,28.5367,-95.3933,0010,32.4500
1993-03-25 21:30:00 UTC,2449072.395833,28.5367,-95.3933,0010,32.2400
1993-03-25 22:00:00 UTC,2449072.416667,28.5367,-95.3933,0010,32.4500
1993-03-25 22:30:00 UTC,2449072.437500,28.5367,-95.3933,0010,32.3100
1993-03-25 23:00:00 UTC,2449072.458333,28.5367,-95.3933,0010,32.3100
1993-03-25 23:30:00 UTC,2449072.479167,28.5367,-95.3933,0010,32.3100
1993-03-26 00:00:00 UTC,2449072.500000,28.5367,-95.3933,0010,32.3100
1993-03-26 00:30:00 UTC,2449072.520833,28.5367,-95.3933,0010,32.3900
1993-03-26 01:00:00 UTC,2449072.541667,28.5367,-95.3933,0010,32.3100
1993-03-26 01:30:00 UTC,2449072.562500,28.5367,-95.3933,0010,32.1800
1993-03-26 02:00:00 UTC,2449072.583333,28.5367,-95.3933,0010,32.2600
1993-03-26 02:30:00 UTC,2449072.604167,28.5367,-95.3933,0010,32.3900
1993-03-26 03:00:00 UTC,2449072.625000,28.5367,-95.3933,0010,32.2600
1993-03-26 03:30:00 UTC,2449072.645833,28.5367,-95.3933,0010,32.2600
1993-03-26 04:00:00 UTC,2449072.666667,28.5367,-95.3933,0010,32.2600
1993-03-26 04:30:00 UTC,2449072.687500,28.5367,-95.3933,0010,32.2600
1993-03-26 05:00:00 UTC,2449072.708333,28.5367,-95.3933,0010,32.3900
1993-03-26 05:30:00 UTC,2449072.729167,28.5367,-95.3933,0010,32.3400
1993-03-26 06:00:00 UTC,2449072.750000,28.5367,-95.3933,0010,32.3900
1993-03-26 06:30:00 UTC,2449072.770833,28.5367,-95.3933,0010,32.3900
1993-03-26 07:00:00 UTC,2449072.791667,28.5367,-95.3933,0010,32.3900
1993-03-26 07:30:00 UTC,2449072.812500,28.5367,-95.3933,0010,32.3900
1993-03-26 08:00:00 UTC,2449072.833333,28.5367,-95.3933,0010,32.3900
1993-03-26 08:30:00 UTC,2449072.854167,28.5367,-95.3933,0010,32.3900
1993-03-26 09:00:00 UTC,2449072.875000,28.5367,-95.3933,0010,32.5800
1993-03-26 09:30:00 UTC,2449072.895833,28.5367,-95.3933,0010,32.5000
1993-03-26 10:00:00 UTC,2449072.916667,28.5367,-95.3933,0010,32.4500
1993-03-26 10:30:00 UTC,2449072.937500,28.5367,-95.3933,0010,32.5000
1993-03-26 11:00:00 UTC,2449072.958333,28.5367,-95.3933,0010,32.5800
1993-03-26 11:30:00 UTC,2449072.979167,28.5367,-95.3933,0010,32.4500
1993-03-26 12:00:00 UTC,2449073.000000,28.5367,-95.3933,0010,32.5000
1993-03-26 12:30:00 UTC,2449073.020833,28.5367,-95.3933,0010,32.6300
1993-03-26 13:00:00 UTC,2449073.041667,28.5367,-95.3933,0010,32.7100
1993-03-26 13:30:00 UTC,2449073.062500,28.5367,-95.3933,0010,32.5800
1993-03-26 14:00:00 UTC,2449073.083333,28.5367,-95.3933,0010,32.5800
1993-03-26 14:30:00 UTC,2449073.104167,28.5367,-95.3933,0010,32.5800
1993-03-26 15:00:00 UTC,2449073.125000,28.5367,-95.3933,0010,32.5800
1993-03-26 15:30:00 UTC,2449073.145833,28.5367,-95.3933,0010,32.5800
1993-03-26 16:00:00 UTC,2449073.166667,28.5367,-95.3933,0010,32.5800
1993-03-26 16:30:00 UTC,2449073.187500,28.5367,-95.3933,0010,32.5800
1993-03-26 17:00:00 UTC,2449073.208333,28.5367,-95.3933,0010,32.4500
1993-03-26 17:30:00 UTC,2449073.229167,28.5367,-95.3933,0010,32.4500
1993-03-26 18:00:00 UTC,2449073.250000,28.5367,-95.3933,0010,32.5800
1993-03-26 18:30:00 UTC,2449073.270833,28.5367,-95.3933,0010,32.5800
1993-03-26 19:00:00 UTC,2449073.291667,28.5367,-95.3933,0010,32.7100
1993-03-26 19:30:00 UTC,2449073.312500,28.5367,-95.3933,0010,32.5800
1993-03-26 20:00:00 UTC,2449073.333333,28.5367,-95.3933,0010,32.5800
1993-03-26 20:30:00 UTC,2449073.354167,28.5367,-95.3933,0010,32.5300
1993-03-26 21:00:00 UTC,2449073.375000,28.5367,-95.3933,0010,32.5800
1993-03-26 21:30:00 UTC,2449073.395833,28.5367,-95.3933,0010,32.6600
1993-03-26 22:00:00 UTC,2449073.416667,28.5367,-95.3933,0010,32.5800
1993-03-26 22:30:00 UTC,2449073.437500,28.5367,-95.3933,0010,32.5800
1993-03-26 23:00:00 UTC,2449073.458333,28.5367,-95.3933,0010,32.6600
1993-03-26 23:30:00 UTC,2449073.479167,28.5367,-95.3933,0010,32.5300
1993-03-27 00:00:00 UTC,2449073.500000,28.5367,-95.3933,0010,32.4500
1993-03-27 00:30:00 UTC,2449073.520833,28.5367,-95.3933,0010,32.4500
1993-03-27 01:00:00 UTC,2449073.541667,28.5367,-95.3933,0010,32.4500
1993-03-27 01:30:00 UTC,2449073.562500,28.5367,-95.3933,0010,32.6600
1993-03-27 02:00:00 UTC,2449073.583333,28.5367,-95.3933,0010,32.4500
1993-03-27 02:30:00 UTC,2449073.604167,28.5367,-95.3933,0010,32.5300
1993-03-27 03:00:00 UTC,2449073.625000,28.5367,-95.3933,0010,32.5800
1993-03-27 03:30:00 UTC,2449073.645833,28.5367,-95.3933,0010,32.6600
1993-03-27 04:00:00 UTC,2449073.666667,28.5367,-95.3933,0010,32.5800
1993-03-27 04:30:00 UTC,2449073.687500,28.5367,-95.3933,0010,32.5800
1993-03-27 05:00:00 UTC,2449073.708333,28.5367,-95.3933,0010,32.5800
1993-03-27 05:30:00 UTC,2449073.729167,28.5367,-95.3933,0010,32.5800
1993-03-27 06:00:00 UTC,2449073.750000,28.5367,-95.3933,0010,32.5800
1993-03-27 06:30:00 UTC,2449073.770833,28.5367,-95.3933,0010,32.6600
1993-03-27 07:00:00 UTC,2449073.791667,28.5367,-95.3933,0010,32.6600
1993-03-27 07:30:00 UTC,2449073.812500,28.5367,-95.3933,0010,32.5300
1993-03-27 08:00:00 UTC,2449073.833333,28.5367,-95.3933,0010,32.3900
1993-03-27 08:30:00 UTC,2449073.854167,28.5367,-95.3933,0010,32.4700
1993-03-27 09:00:00 UTC,2449073.875000,28.5367,-95.3933,0010,32.4700
1993-03-27 09:30:00 UTC,2449073.895833,28.5367,-95.3933,0010,32.3900
1993-03-27 10:00:00 UTC,2449073.916667,28.5367,-95.3933,0010,32.3100
1993-03-27 10:30:00 UTC,2449073.937500,28.5367,-95.3933,0010,32.3100
1993-03-27 11:00:00 UTC,2449073.958333,28.5367,-95.3933,0010,32.3100
1993-03-27 11:30:00 UTC,2449073.979167,28.5367,-95.3933,0010,32.3100
1993-03-27 12:00:00 UTC,2449074.000000,28.5367,-95.3933,0010,32.1800
1993-03-27 12:30:00 UTC,2449074.020833,28.5367,-95.3933,0010,32.0500
1993-03-27 13:00:00 UTC,2449074.041667,28.5367,-95.3933,0010,32.1800
1993-03-27 13:30:00 UTC,2449074.062500,28.5367,-95.3933,0010,32.1800
1993-03-27 14:00:00 UTC,2449074.083333,28.5367,-95.3933,0010,32.3100
1993-03-27 14:30:00 UTC,2449074.104167,28.5367,-95.3933,0010,32.3900
1993-03-27 15:00:00 UTC,2449074.125000,28.5367,-95.3933,0010,32.4500
1993-03-27 15:30:00 UTC,2449074.145833,28.5367,-95.3933,0010,32.6600
1993-03-27 16:00:00 UTC,2449074.166667,28.5367,-95.3933,0010,32.7900
1993-03-27 16:30:00 UTC,2449074.187500,28.5367,-95.3933,0010,32.3100
1993-03-27 17:00:00 UTC,2449074.208333,28.5367,-95.3933,0010,32.4500
1993-03-27 17:30:00 UTC,2449074.229167,28.5367,-95.3933,0010,32.2400
1993-03-27 18:00:00 UTC,2449074.250000,28.5367,-95.3933,0010,32.6600
1993-03-27 18:30:00 UTC,2449074.270833,28.5367,-95.3933,0010,32.6600
1993-03-27 19:00:00 UTC,2449074.291667,28.5367,-95.3933,0010,32.6600
1993-03-27 19:30:00 UTC,2449074.312500,28.5367,-95.3933,0010,32.6600
1993-03-27 20:00:00 UTC,2449074.333333,28.5367,-95.3933,0010,32.7900
1993-03-27 20:30:00 UTC,2449074.354167,28.5367,-95.3933,0010,32.6600
1993-03-27 21:00:00 UTC,2449074.375000,28.5367,-95.3933,0010,32.6600
1993-03-27 21:30:00 UTC,2449074.395833,28.5367,-95.3933,0010,32.7400
1993-03-27 22:00:00 UTC,2449074.416667,28.5367,-95.3933,0010,32.6600
1993-03-27 22:30:00 UTC,2449074.437500,28.5367,-95.3933,0010,32.6600
1993-03-27 23:00:00 UTC,2449074.458333,28.5367,-95.3933,0010,32.7900
1993-03-27 23:30:00 UTC,2449074.479167,28.5367,-95.3933,0010,32.7900
1993-03-28 00:00:00 UTC,2449074.500000,28.5367,-95.3933,0010,32.7900
1993-03-28 00:30:00 UTC,2449074.520833,28.5367,-95.3933,0010,32.6600
1993-03-28 01:00:00 UTC,2449074.541667,28.5367,-95.3933,0010,32.7400
1993-03-28 01:30:00 UTC,2449074.562500,28.5367,-95.3933,0010,32.7100
1993-03-28 02:00:00 UTC,2449074.583333,28.5367,-95.3933,0010,32.6600
1993-03-28 02:30:00 UTC,2449074.604167,28.5367,-95.3933,0010,32.7900
1993-03-28 03:00:00 UTC,2449074.625000,28.5367,-95.3933,0010,32.6600
1993-03-28 03:30:00 UTC,2449074.645833,28.5367,-95.3933,0010,32.4500
1993-03-28 04:00:00 UTC,2449074.666667,28.5367,-95.3933,0010,32.4500
1993-03-28 04:30:00 UTC,2449074.687500,28.5367,-95.3933,0010,32.0100
1993-03-28 05:00:00 UTC,2449074.708333,28.5367,-95.3933,0010,31.8800
1993-03-28 05:30:00 UTC,2449074.729167,28.5367,-95.3933,0010,32.0100
1993-03-28 06:00:00 UTC,2449074.750000,28.5367,-95.3933,0010,32.0100
1993-03-28 06:30:00 UTC,2449074.770833,28.5367,-95.3933,0010,32.0100
1993-03-28 07:00:00 UTC,2449074.791667,28.5367,-95.3933,0010,32.0100
1993-03-28 07:30:00 UTC,2449074.812500,28.5367,-95.3933,0010,32.0100
1993-03-28 08:00:00 UTC,2449074.833333,28.5367,-95.3933,0010,32.2200
1993-03-28 08:30:00 UTC,2449074.854167,28.5367,-95.3933,0010,32.2200
1993-03-28 09:00:00 UTC,2449074.875000,28.5367,-95.3933,0010,32.0800
1993-03-28 09:30:00 UTC,2449074.895833,28.5367,-95.3933,0010,32.2200
1993-03-28 10:00:00 UTC,2449074.916667,28.5367,-95.3933,0010,32.3500
1993-03-28 10:30:00 UTC,2449074.937500,28.5367,-95.3933,0010,32.2200
1993-03-28 11:00:00 UTC,2449074.958333,28.5367,-95.3933,0010,32.3500
1993-03-28 11:30:00 UTC,2449074.979167,28.5367,-95.3933,0010,32.2700
1993-03-28 12:00:00 UTC,2449075.000000,28.5367,-95.3933,0010,32.4200
1993-03-28 12:30:00 UTC,2449075.020833,28.5367,-95.3933,0010,32.4200
1993-03-28 13:00:00 UTC,2449075.041667,28.5367,-95.3933,0010,32.4200
1993-03-28 13:30:00 UTC,2449075.062500,28.5367,-95.3933,0010,32.4200
1993-03-28 14:00:00 UTC,2449075.083333,28.5367,-95.3933,0010,32.5600
1993-03-28 14:30:00 UTC,2449075.104167,28.5367,-95.3933,0010,32.5600
1993-03-28 15:00:00 UTC,2449075.125000,28.5367,-95.3933,0010,32.5000
1993-03-28 15:30:00 UTC,2449075.145833,28.5367,-95.3933,0010,32.6300
1993-03-28 16:00:00 UTC,2449075.166667,28.5367,-95.3933,0010,32.6300
1993-03-28 16:30:00 UTC,2449075.187500,28.5367,-95.3933,0010,32.5000
1993-03-28 17:00:00 UTC,2449075.208333,28.5367,-95.3933,0010,32.5000
1993-03-28 17:30:00 UTC,2449075.229167,28.5367,-95.3933,0010,32.5000
1993-03-28 18:00:00 UTC,2449075.250000,28.5367,-95.3933,0010,32.5000
1993-03-28 18:30:00 UTC,2449075.270833,28.5367,-95.3933,0010,32.5000
1993-03-28 19:00:00 UTC,2449075.291667,28.5367,-95.3933,0010,32.5000
1993-03-28 19:30:00 UTC,2449075.312500,28.5367,-95.3933,0010,32.6300
1993-03-28 20:00:00 UTC,2449075.333333,28.5367,-95.3933,0010,32.5000
1993-03-28 20:30:00 UTC,2449075.354167,28.5367,-95.3933,0010,32.5000
1993-03-28 21:00:00 UTC,2449075.375000,28.5367,-95.3933,0010,32.7100
1993-03-28 21:30:00 UTC,2449075.395833,28.5367,-95.3933,0010,32.6300
1993-03-28 22:00:00 UTC,2449075.416667,28.5367,-95.3933,0010,32.7100
1993-03-28 22:30:00 UTC,2449075.437500,28.5367,-95.3933,0010,32.7100
1993-03-28 23:00:00 UTC,2449075.458333,28.5367,-95.3933,0010,32.5800
1993-03-28 23:30:00 UTC,2449075.479167,28.5367,-95.3933,0010,32.5800
1993-03-29 00:00:00 UTC,2449075.500000,28.5367,-95.3933,0010,32.5800
1993-03-29 00:30:00 UTC,2449075.520833,28.5367,-95.3933,0010,32.5800
1993-03-29 01:00:00 UTC,2449075.541667,28.5367,-95.3933,0010,32.7100
1993-03-29 01:30:00 UTC,2449075.562500,28.5367,-95.3933,0010,32.7100
1993-03-29 02:00:00 UTC,2449075.583333,28.5367,-95.3933,0010,32.7100
1993-03-29 02:30:00 UTC,2449075.604167,28.5367,-95.3933,0010,32.5800
1993-03-29 03:00:00 UTC,2449075.625000,28.5367,-95.3933,0010,32.5800
1993-03-29 03:30:00 UTC,2449075.645833,28.5367,-95.3933,0010,32.5800
1993-03-29 04:00:00 UTC,2449075.666667,28.5367,-95.3933,0010,32.5800
1993-03-29 04:30:00 UTC,2449075.687500,28.5367,-95.3933,0010,32.7100
1993-03-29 05:00:00 UTC,2449075.708333,28.5367,-95.3933,0010,32.6300
1993-03-29 05:30:00 UTC,2449075.729167,28.5367,-95.3933,0010,32.4200
1993-03-29 06:00:00 UTC,2449075.750000,28.5367,-95.3933,0010,32.4200
1993-03-29 06:30:00 UTC,2449075.770833,28.5367,-95.3933,0010,32.4200
1993-03-29 07:00:00 UTC,2449075.791667,28.5367,-95.3933,0010,32.2900
1993-03-29 07:30:00 UTC,2449075.812500,28.5367,-95.3933,0010,32.4200
1993-03-29 08:00:00 UTC,2449075.833333,28.5367,-95.3933,0010,32.4200
1993-03-29 08:30:00 UTC,2449075.854167,28.5367,-95.3933,0010,32.4200
1993-03-29 09:00:00 UTC,2449075.875000,28.5367,-95.3933,0010,32.4200
1993-03-29 09:30:00 UTC,2449075.895833,28.5367,-95.3933,0010,32.4200
1993-03-29 10:00:00 UTC,2449075.916667,28.5367,-95.3933,0010,32.2200
1993-03-29 10:30:00 UTC,2449075.937500,28.5367,-95.3933,0010,32.2200
1993-03-29 11:00:00 UTC,2449075.958333,28.5367,-95.3933,0010,32.0800
1993-03-29 11:30:00 UTC,2449075.979167,28.5367,-95.3933,0010,32.0800
1993-03-29 12:00:00 UTC,2449076.000000,28.5367,-95.3933,0010,32.1600
1993-03-29 12:30:00 UTC,2449076.020833,28.5367,-95.3933,0010,32.1600
1993-03-29 13:00:00 UTC,2449076.041667,28.5367,-95.3933,0010,32.1600
1993-03-29 13:30:00 UTC,2449076.062500,28.5367,-95.3933,0010,32.1600
1993-03-29 14:00:00 UTC,2449076.083333,28.5367,-95.3933,0010,32.1600
1993-03-29 14:30:00 UTC,2449076.104167,28.5367,-95.3933,0010,32.0800
1993-03-29 15:00:00 UTC,2449076.125000,28.5367,-95.3933,0010,32.1600
1993-03-29 15:30:00 UTC,2449076.145833,28.5367,-95.3933,0010,32.0800
1993-03-29 16:00:00 UTC,2449076.166667,28.5367,-95.3933,0010,32.1600
1993-03-29 16:30:00 UTC,2449076.187500,28.5367,-95.3933,0010,32.1600
1993-03-29 17:00:00 UTC,2449076.208333,28.5367,-95.3933,0010,32.2900
1993-03-29 17:30:00 UTC,2449076.229167,28.5367,-95.3933,0010,32.1600
1993-03-29 18:00:00 UTC,2449076.250000,28.5367,-95.3933,0010,32.1600
1993-03-29 18:30:00 UTC,2449076.270833,28.5367,-95.3933,0010,32.1600
1993-03-29 19:00:00 UTC,2449076.291667,28.5367,-95.3933,0010,32.2900
1993-03-29 19:30:00 UTC,2449076.312500,28.5367,-95.3933,0010,32.2900
1993-03-29 20:00:00 UTC,2449076.333333,28.5367,-95.3933,0010,32.2900
1993-03-29 20:30:00 UTC,2449076.354167,28.5367,-95.3933,0010,32.2900
1993-03-29 21:00:00 UTC,2449076.375000,28.5367,-95.3933,0010,32.2200
1993-03-29 21:30:00 UTC,2449076.395833,28.5367,-95.3933,0010,32.0800
1993-03-29 22:00:00 UTC,2449076.416667,28.5367,-95.3933,0010,32.2200
1993-03-29 22:30:00 UTC,2449076.437500,28.5367,-95.3933,0010,32.0800
1993-03-29 23:00:00 UTC,2449076.458333,28.5367,-95.3933,0010,32.1600
1993-03-29 23:30:00 UTC,2449076.479167,28.5367,-95.3933,0010,32.2200
1993-03-30 00:00:00 UTC,2449076.500000,28.5367,-95.3933,0010,32.0800
1993-03-30 00:30:00 UTC,2449076.520833,28.5367,-95.3933,0010,32.1600
1993-03-30 01:00:00 UTC,2449076.541667,28.5367,-95.3933,0010,32.2200
1993-03-30 01:30:00 UTC,2449076.562500,28.5367,-95.3933,0010,32.0800